Weather Roundup
Issued by NWS

Home | Current Version | Previous Version | Text Only | Print | Product List | Glossary On
Versions: 1 2 3 4 5 6 7 8 9 10 11 12 13 14 15 16 17 18 19 20 21 22 23 24 25 26 27 28 29 30 31 32 33 34 35 36 37 38 39 40 41 42 43 44 45 46 47 48 49 50
459
NZUS93 KARX 240810
HRRWXR

CURRENT HOURLY OBSERVATIONS ACROSS
MUCH OF THE UPPER MISSISSIPPI VALLEY
NATIONAL WEATHER SERVICE LA CROSSE WI
300 AM CDT SUN SEP 24 2017


...SOUTHEAST MINNESOTA...


CITY           SKY/WX    TMP DP  RH WIND       PRES   REMARKS
ROCHESTER      CLEAR     68  62  81 S9        30.00F
ROCHESTER/MAYO FAIR      72  62  70 SE8       30.00S
WINONA         CLEAR     72  64  78 CALM      29.99S
AUSTIN         CLEAR     70  61  73 SE5       29.99S
ALBERT LEA     CLEAR     73  64  73 SE7       29.97S
DODGE CENTER   CLEAR     66  61  82 SE7       29.99S
PRESTON        CLEAR     69  61  74 S7        30.02S
OWATONNA       CLEAR     73  63  68 SE12      29.96F
FARIBAULT      CLEAR     70  63  78 S3        29.96S
$$

...ELSEWHERE IN MINNESOTA...


CITY           SKY/WX    TMP DP  RH WIND       PRES   REMARKS
MINNEAPOLIS    CLEAR     77  65  66 S10       29.94S
INTNL FALLS    LGT RAIN  57  55  93 NE5       29.99F
DULUTH         CLOUDY    64  63  96 E7        29.97F
RED WING       CLEAR     73  61  64 E6        29.96R
REDWOOD FALLS  FOG       61  60  97 NW3       29.92S VSB 1/4
MANKATO        CLEAR     71  65  81 SE7       29.94S
WORTHINGTON    MOCLDY    60  59  96 NE3       29.94S
FAIRMONT       CLOUDY    69  64  84 S7        29.94S
$$

...SOUTHWEST WISCONSIN...


CITY           SKY/WX    TMP DP  RH WIND       PRES   REMARKS
LA CROSSE      CLEAR     72  66  81 CALM      30.00S
PRAIRIE DU CHI CLEAR     67  62  84 CALM      30.02R
BOSCOBEL       CLEAR     64  63  96 CALM      30.03S FOG
LONE ROCK      CLEAR     64  63  96 NE3       30.04S
PLATTEVILLE    CLEAR     71  65  81 E6        30.05S
FORT MC COY    CLEAR     65  62  90 CALM      30.04R
CAMP DOUGLAS   CLEAR     65  65  99 SE7       30.04S
MAUSTON-NEW LI SUNNY     65  64  94 S3        30.04R
VIROQUA        FAIR      69  65  85 SE6       30.05S
WIS DELLS      CLEAR     72  62  71 S6        30.06S
$$

...ELSEWHERE IN WISCONSIN...


CITY           SKY/WX    TMP DP  RH WIND       PRES   REMARKS
MILWAUKEE      CLEAR     70  66  87 SE3       30.07F
MADISON        CLEAR     73  66  78 S6        30.06S
GREEN BAY      PTCLDY    70  67  90 S3        30.06S
EAU CLAIRE     PTCLDY    69  64  84 CALM      29.99R
BLACK RVR FLS  FAIR      60  60 100 CALM      30.02R FOG
MEDFORD        CLEAR     66  62  86 S6        30.06R
WAUSAU         CLEAR     67  64  90 SE5       30.05S
WIS RAPIDS     CLEAR     70  64  81 S3        30.06S
MARSHFIELD     CLEAR     66  60  81 S5        30.05S
RICE LAKE      PTCLDY    68  64  87 CALM      30.01S
$$

...NORTHEAST IOWA...


CITY           SKY/WX    TMP DP  RH WIND       PRES   REMARKS
WATERLOO       CLEAR     71  62  73 S8        29.99S
DUBUQUE        CLEAR     68  62  81 S3        30.05S
DECORAH        CLEAR     70  63  78 S6        30.02R
MASON CITY     CLEAR     69  62  78 SE10      29.99S
CHARLES CITY   CLEAR     70  64  83 SE7       30.00F
OELWEIN        CLEAR     70  64  83 SE7       30.03R
$$

...ELSEWHERE IN IOWA...


CITY           SKY/WX    TMP DP  RH WIND       PRES   REMARKS
DES MOINES     CLOUDY    73  64  73 SE8       29.96S
IOWA CITY      CLEAR     69  64  84 CALM      30.02S
FORT DODGE     PTCLDY    73  65  75 SE6       29.96S
MARSHALLTOWN   CLEAR     72  63  73 SE7       29.98S
CEDAR RAPIDS     N/A     66  62  87 SE3       30.01R
$$

...NORTHERN ILLINOIS...


CITY           SKY/WX    TMP DP  RH WIND       PRES   REMARKS
CHICAGO-OHARE  CLEAR     72  65  78 CALM      30.07S
CHICAGO-MIDWAY CLEAR     77  65  66 SE5       30.07S
MOLINE         CLEAR     69  62  78 E5        30.02R
ROCKFORD       CLEAR     69  64  84 CALM      30.07S
PEORIA         CLEAR     69  64  84 CALM      30.05S
$$

NOTE: "FAIR" INDICATES FEW OR NO CLOUDS BELOW 12,000 FEET WITH NO
SIGNIFICANT WEATHER AND/OR OBSTRUCTIONS TO VISIBILITY. WIND
SPEEDS ARE IN MILES-PER-HOUR.




USA.gov is the U.S. government's official web portal to all federal, state and local government web resources and services.